Springfield, OH

2:45 AM EDT on July 23, 2017 (GMT -0400)
Springfield-Beckley Municipal

Weather History for KSGH - December, 2013

Change the Weather History Date:

Saturday, December 28, 2013

  Actual Average (KFFO) Record (KFFO)
Temperature  
Mean Temperature 42 °F -  
Max Temperature 50 °F 35 °F 66 °F (1996)
Min Temperature 34 °F 21 °F -2 °F (2000)
Degree Days  
Heating Degree Days 23    
Moisture  
Dew Point 30 °F    
Average Humidity 66    
Maximum Humidity 79    
Minimum Humidity 50    
Precipitation  
Precipitation 0.00 in - - ()
Sea Level Pressure  
Sea Level Pressure 30.19 in    
Wind  
Wind Speed 12 mph (SSW)    
Max Wind Speed 16 mph    
Max Gust Speed -    
Visibility 7 miles    
Events      
Averages and records for this station are not official NWS values.
T = Trace of Precipitation, MM = Missing Value Source: NWS Daily Summary

Daily Weather History Graph

Daily Weather History Graph

Search for Another Location

Airport or City:

Trip Planner

Search our weather history database for the weather conditions in past years. The results will help you decide how hot, cold, wet, or windy it might be!

Date:

Astronomy

Dec. 28, 2013 Rise Set
Actual Time 7:56 AM EST 5:18 PM EST
Civil Twilight 7:25 AM EST 5:48 PM EST
Nautical Twilight 6:51 AM EST 6:22 PM EST
Astronomical Twilight 6:18 AM EST 6:55 PM EST
Moon 3:32 AM EST (12/28) 2:08 PM EST (12/28)
Length of Visible Light 10h 23m
Length of Day
9h 22m
Waning Crescent, 19% of the Moon is Illuminated
Dec 28
Waning Crescent
Jan 1
New
Jan 7
First Quarter
Jan 15
Full
Jan 24
Last Quarter

Hourly Weather History & Observations

Time (EST) Temp. Windchill Dew Point Humidity Pressure Visibility Wind Dir Wind Speed Gust Speed Precip Events Conditions
12:56 AM 36.0 °F 27.5 °F 28.0 °F 73% 30.26 in 7.0 mi SW 12.7 mph - N/A   Clear
1:56 AM 34.9 °F 26.2 °F 28.0 °F 76% 30.25 in 7.0 mi SW 12.7 mph - N/A   Clear
2:56 AM 34.9 °F 26.6 °F 28.0 °F 76% 30.25 in 7.0 mi SW 11.5 mph - N/A   Clear
3:56 AM 36.0 °F 27.1 °F 28.0 °F 73% 30.25 in 7.0 mi SW 13.8 mph - N/A   Clear
4:56 AM 34.9 °F 25.7 °F 29.1 °F 79% 30.25 in 7.0 mi SW 13.8 mph - N/A   Clear
5:56 AM 36.0 °F 27.1 °F 29.1 °F 76% 30.25 in 7.0 mi SW 13.8 mph - N/A   Clear
6:56 AM 34.9 °F 25.7 °F 29.1 °F 79% 30.25 in 7.0 mi SW 13.8 mph - N/A   Clear
7:56 AM 34.9 °F 26.2 °F 29.1 °F 79% 30.25 in 7.0 mi SW 12.7 mph - N/A   Clear
8:56 AM 36.0 °F 28.5 °F 29.1 °F 76% 30.27 in 6.0 mi SW 10.4 mph - N/A   Haze
9:56 AM 38.8 °F 31.2 °F 30.0 °F 71% 30.26 in 6.0 mi SW 12.7 mph - N/A   Haze
10:56 AM 43.9 °F 38.3 °F 32.0 °F 63% 30.25 in 6.0 mi SW 10.4 mph - N/A   Haze
11:56 AM 41.9 °F 35.9 °F 32.0 °F 68% 30.23 in 6.0 mi SSW 10.4 mph - N/A   Haze
12:56 PM 48.9 °F - 32.9 °F 54% 30.18 in 5.0 mi SW 9.2 mph - N/A   Haze
1:56 PM 50.9 °F - 32.9 °F 50% 30.17 in 6.0 mi SW 16.1 mph - N/A   Haze
2:56 PM 50.9 °F - 32.9 °F 50% 30.17 in 6.0 mi SW 16.1 mph - N/A   Haze
3:56 PM 48.9 °F - 32.9 °F 54% 30.16 in 6.0 mi SW 9.2 mph - N/A   Haze
4:56 PM 46.9 °F - 32.0 °F 56% 30.15 in 6.0 mi SSW 10.4 mph - N/A   Haze
5:56 PM 45.0 °F 40.6 °F 32.0 °F 60% 30.15 in 7.0 mi SSW 8.1 mph - N/A   Clear
6:56 PM 43.9 °F 38.3 °F 32.0 °F 63% 30.14 in 7.0 mi SSW 10.4 mph - N/A   Clear
7:56 PM 43.0 °F 37.7 °F 31.1 °F 63% 30.14 in 8.0 mi SSW 9.2 mph - N/A   Clear
8:56 PM 41.9 °F 36.3 °F 30.0 °F 63% 30.11 in 8.0 mi SSW 9.2 mph - N/A   Clear
9:56 PM 41.0 °F 36.4 °F 30.0 °F 65% 30.07 in 7.0 mi South 6.9 mph - N/A   Clear
10:56 PM 41.0 °F 35.2 °F 30.0 °F 65% 30.05 in 7.0 mi South 9.2 mph - N/A   Clear
11:56 PM 41.0 °F 36.4 °F 29.1 °F 63% 30.04 in 8.0 mi SSW 6.9 mph - N/A   Clear